Location: Katowice
(50.2611°N, 19.0242°E)
Time: 07:59:28
(UTC+02:00)

ISS - Pass Details

Date: 01 April 2019
Orbit: 408 x 410 km, 51.6° (Epoch: 22 April)

Event Time Altitude Azimuth Distance (km) Brightness Sun altitude
Rises 21:47:12 0° 287° (WNW) 2,339 1.2 -22.8°
Reaches altitude 10° 21:49:21 10° 279° (W) 1,475 -0.2 -23.0°
Enters shadow 21:51:18 28° 256° (WSW) 800 -2.1 -23.3°
